EW1186 Weather Reports


time (UTC)temp
F
wind
direction
speed
knots
gust
knots
rain 1hr
in
rain 24hr
in
rain mn
in
humidity
%
barometer
mb
20260509071514 51 210 0.0 0.0 0.00 0.01 0.00 87 1012.8
20260509070019 51 210 0.0 0.0 0.00 0.01 0.00 86 1012.8
20260509064507 52 210 0.0 0.0 0.00 0.01 0.00 86 1013.0
20260509063005 52 210 0.0 0.0 0.00 0.01 0.00 85 1013.1
20260509061502 53 210 0.0 0.0 0.00 0.01 0.00 85 1013.5
20260509060113 53 210 0.0 0.0 0.00 0.01 0.00 84 1013.7
20260509054556 54 209 0.0 0.0 0.00 0.01 0.00 84 1013.8
20260509053055 54 209 0.0 0.0 0.00 0.01 0.00 84 1013.9
20260509051553 55 210 0.0 0.0 0.00 0.01 0.00 84 1014.1
20260509050050 55 210 0.0 0.0 0.00 0.01 0.00 84 1014.2
20260509044548 55 210 0.0 0.0 0.00 0.01 0.00 84 1014.5
20260509043050 55 210 0.0 0.0 0.00 0.01 0.00 85 1014.6
20260509041545 55 210 0.0 3.5 0.00 0.01 0.00 85 1014.4
20260509040043 55 210 0.0 0.9 0.00 0.01 0.00 86 1014.5
20260509034543 55 210 0.0 0.9 0.00 0.01 0.01 86 1014.3
20260509033043 55 210 0.0 0.0 0.00 0.01 0.01 86 1014.3
20260509031542 55 210 0.0 0.0 0.00 0.01 0.01 86 1014.4
20260509030045 55 210 0.0 0.0 0.00 0.01 0.01 85 1014.5
20260509024540 56 210 0.0 0.0 0.00 0.01 0.01 85 1014.7
20260509023041 56 210 0.0 0.0 0.00 0.01 0.01 84 1014.8
20260509021539 56 210 0.0 0.0 0.00 0.01 0.01 84 1014.6
20260509020138 57 210 0.0 0.0 0.00 0.01 0.01 83 1014.7
20260509014546 58 210 0.0 0.0 0.00 0.01 0.01 82 1014.6
20260509013041 58 210 0.0 0.0 0.00 0.01 0.01 81 1014.4
20260509011537 59 210 0.0 0.0 0.00 0.01 0.01 80 1014.3
20260509010036 60 210 0.0 0.0 0.00 0.01 0.01 78 1014.2
20260509004537 61 210 0.0 0.0 0.00 0.01 0.01 76 1014.1
20260509003041 62 210 0.0 0.0 0.00 0.01 0.01 74 1014.1
20260509001534 64 210 0.0 0.0 0.00 0.01 0.01 71 1014.0
20260509000034 65 183 0.0 0.0 0.00 0.01 0.01 69 1013.7
20260508234553 66 183 0.0 0.0 0.00 0.02 0.01 67 1013.7
20260508233052 68 183 0.0 0.0 0.00 0.02 0.01 65 1013.5
20260508231548 68 183 0.0 0.0 0.00 0.02 0.01 60 1013.8
20260508230047 68 189 0.0 0.0 0.00 0.02 0.01 61 1013.7
20260508224547 68 190 0.0 0.0 0.00 0.11 0.01 58 1013.9
20260508223047 69 195 0.0 3.5 0.00 0.11 0.01 55 1014.0
20260508221546 70 195 0.0 3.5 0.00 0.11 0.01 47 1014.0
20260508220046 70 196 0.0 0.9 0.00 0.11 0.01 45 1013.7
20260508214545 70 196 0.0 1.7 0.00 0.19 0.01 48 1013.6
20260508213048 70 196 0.0 2.6 0.00 0.19 0.01 46 1013.7
20260508211516 70 196 0.0 2.6 0.00 0.19 0.01 44 1013.9
20260508210106 71 191 0.0 3.5 0.00 0.19 0.01 44 1014.1
20260508204521 72 207 0.0 1.7 0.00 0.19 0.01 39 1013.9
20260508203118 72 304 0.0 3.5 0.00 0.19 0.01 39 1014.2
20260508201535 72 101 0.9 4.3 0.00 0.19 0.01 40 1014.3
20260508200125 72 198 1.7 4.3 0.00 0.19 0.01 40 1014.7
20260508194548 71 282 0.0 4.3 0.00 0.19 0.01 39 1014.8
20260508193012 72 182 0.9 3.5 0.00 0.19 0.01 47 1015.1
20260508191611 71 194 0.0 7.0 0.00 0.19 0.01 44 1015.0
20260508190037 71 237 1.7 4.3 0.00 0.19 0.01 43 1015.5
20260508184627 71 208 0.0 4.3 0.00 0.19 0.01 46 1015.6
20260508183046 71 111 0.0 4.3 0.00 0.19 0.01 43 1015.6
20260508181516 71 196 0.0 6.1 0.00 0.19 0.01 39 1016.0
20260508180106 70 284 0.0 7.0 0.00 0.19 0.01 49 1016.1
20260508174533 69 203 0.0 6.1 0.00 0.19 0.01 45 1016.4
20260508173125 70 185 1.7 6.1 0.00 0.19 0.01 48 1016.5
20260508171543 70 190 1.7 7.0 0.00 0.19 0.01 48 1016.7
20260508170131 68 185 3.5 6.1 0.00 0.19 0.01 47 1016.9
20260508164600 68 9 0.0 2.6 0.00 0.19 0.01 50 1017.0
20260508163017 69 82 0.9 5.2 0.00 0.19 0.01 48 1017.1
20260508161601 69 96 0.9 7.0 0.00 0.19 0.01 53 1017.5
20260508160015 67 30 0.0 3.5 0.00 0.19 0.01 53 1017.6
20260508154606 67 76 2.6 7.0 0.00 0.21 0.01 51 1017.8
20260508153024 67 278 0.9 6.1 0.00 0.21 0.01 48 1017.8
20260508151600 67 132 0.0 7.8 0.00 0.21 0.01 53 1017.8
20260508150054 66 46 0.0 5.2 0.00 0.21 0.01 52 1018.1
20260508144551 66 17 2.6 7.0 0.00 0.23 0.01 54 1018.1
20260508143047 65 74 0.0 4.3 0.00 0.23 0.01 57 1018.0
20260508141608 64 50 0.0 6.1 0.00 0.23 0.01 63 1017.8
20260508140038 63 114 1.7 6.1 0.00 0.23 0.01 68 1017.9
20260508134548 61 33 0.9 4.3 0.00 0.31 0.01 69 1017.9
20260508133027 58 5 3.5 6.1 0.00 0.31 0.01 80 1017.8
20260508131524 56 54 0.0 2.6 0.00 0.31 0.01 94 1017.6
20260508130019 55 36 0.9 3.5 0.00 0.31 0.01 95 1017.4
20260508124515 54 59 0.0 2.6 0.00 0.41 0.01 96 1017.3
20260508123020 52 279 0.0 1.7 0.00 0.41 0.01 96 1017.3
20260508121512 50 307 0.0 2.6 0.00 0.41 0.01 95 1017.3
20260508120005 50 307 0.0 3.5 0.01 0.41 0.01 95 1017.1
20260508114505 49 196 0.0 0.0 0.01 0.43 0.01 95 1016.8
20260508113115 48 184 0.0 1.7 0.01 0.43 0.01 94 1016.6
20260508111603 47 174 0.0 0.9 0.01 0.43 0.01 94 1016.4
20260508110100 47 302 0.0 1.7 0.00 0.42 0.00 94 1016.2
20260508104553 47 275 0.9 2.6 0.00 0.42 0.00 94 1015.6
20260508103049 46 26 0.0 0.0 0.00 0.42 0.00 93 1015.4
20260508101549 46 26 0.0 0.0 0.00 0.42 0.00 93 1015.2
20260508100046 47 26 0.0 0.0 0.00 0.42 0.00 93 1015.2
20260508094545 47 26 0.0 0.0 0.00 0.44 0.00 93 1015.1
20260508093047 47 26 0.0 0.0 0.00 0.44 0.00 93 1015.0
20260508091549 47 26 0.0 0.0 0.00 0.44 0.00 93 1014.7
20260508090042 47 26 0.0 0.0 0.00 0.44 0.00 93 1014.7
20260508084537 48 26 0.0 0.0 0.00 0.45 0.00 93 1014.5
20260508083037 48 26 0.0 0.0 0.00 0.45 0.00 93 1014.4
20260508081533 49 26 0.0 0.0 0.00 0.45 0.00 93 1014.3
20260508080035 49 26 0.0 0.0 0.00 0.45 0.00 93 1014.1
20260508074531 49 26 0.0 0.0 0.00 0.50 0.00 93 1014.0
20260508073027 50 26 0.0 0.0 0.00 0.50 0.00 92 1013.9